Location: Peebles
(55.6412°N, 3.1714°W)
Time: 18:03:03
(UTC+01:00)

Envisat - Pass Details

Date: 24 February 2024
Orbit: 762 x 764 km, 98.3° (Epoch: 20 April)

Event Time Altitude Azimuth Distance (km) Brightness Sun altitude
Rises 04:03:38 0° 15° (NNE) 3,247 6.8 -27.5°
Reaches altitude 10° 04:05:57 10° 15° (NNE) 2,316 5.9 -27.2°
Enters shadow 04:10:58 85° 336° (NNW) 776 2.9 -26.6°
